Вернуться в каталог

COSMOS 1275 DEB

АктивенPO
NORAD 42171·DEBRIS·🇷🇺 Russia

Запущен Jun 4, 1981 с Plesetsk Cosmodrome

Loading…

Ближайшие Пролёты (ближайшие 24 часа)

TLE

СвежийSource: Space-Track

Эпоха: Sep 13, 2026, 23:21 UTC

1 42171U 81053SK  26256.97358106  .00002681  00000-0  12887-2 0  9997
2 42171  83.0801 158.8315 0041084  84.8952 275.6915 14.18076992117923

Отслеживайте COSMOS 1275 DEB в реальном времени с AllMySat

Download on the App Store